Retour au catalogue

GS-1

ActifScienceGEO
NORAD 56372·PAYLOAD·🇺🇸 United States

Lancé May 1, 2023 depuis Cape Canaveral Space Force Station

Loading…

TLE

FraisSource: Space-Track

Époque: Sep 13, 2026, 22:49 UTC

1 56372U 23060C   26256.95074955 -.00000201  00000-0  00000-0 0  9993
2 56372   2.9476  78.7026 0002970 268.0654  74.8683  1.00251004  8425

Suivez GS-1 en temps réel avec AllMySat

Download on the App Store